User: anonymous   Login
Location: Asbacherhof
(48.8543°N, 10.7903°E)
Time: 01:35:51
(UTC+00:00)
Language:

MOS 1 Rocket - Orbit

View from above orbital plane
View from above orbital plane
View from above satellite
View from above satellite

Ground track
Ground track

The orbit data is extracted from the following two-line orbital elements,

1 17528U 87018B   22225.37896091  .00000536  00000-0  12501-3 0  9999
2 17528  97.4645 353.8213 0151782 153.6336 207.2689 14.51345991852344
Epoch (UTC): 13 August 2022 09:05:42
Eccentricity: 0.0151782
inclination: 97.4645°
perigee height: 613 km
apogee height: 829 km
right ascension of ascending node: 353.8213°
argument of perigee: 153.6336°
revolutions per day: 14.51345991
mean anomaly at epoch: 207.2689°
orbit number at epoch: 85234

The dashed part of the orbit path shows where the satellite is in the earth's shadow,  

DLR